Weather in Nikhaloy

Russia / Chechen Republic     42°50′32″N   45°39′50″E
temp.,
°C
wind,
m/s
gust,
m/s
humid.,
%
clouds,
%
prec.,
mm/h
press.,
hPa
HPBL,
m
12 may, wed
wed1200:00+4sse33744 0.0 101549
03:00+4s33750 0.0 101548
06:00+7s12690 0.0 101462
09:00+14n22500 0.0 1012676
12:00+16nnw34410 0.0 10121301
15:00+16n34430 0.0 10131344
18:00+12n11710 0.0 1015138
21:00+8s44651 0.0 101655
13 may, thu
thu1300:00+8s455756 0.0 101560
03:00+8s46590 0.0 101578
06:00+10s46551 0.0 101591
09:00+20s25270 0.0 10131860
12:00+22wsw14260 0.0 10132306
15:00+22wnw13290 0.0 10132178
18:00+17nw11640 0.0 101556
21:00+11s4456100 0.0 101753
14 may, fri
fri1400:00+11s455716 0.0 101768
03:00+10s45535 0.0 101771
06:00+12s455246 0.0 101788
09:00+22sse122526 0.0 10141290
12:00+24wsw13264 0.0 10132626
15:00+23w133210 0.0 10132274
18:00+19sw12581 0.1 101441
21:00+12s45600 0.1 101773
15 may, sat
sat1500:00+11s46531 0.0 101786
03:00+10s46660 0.0 101687
06:00+12s35590 0.0 101689
09:00+22nne11260 0.0 10131198
12:00+23n42303 0.0 10132394
15:00+21n33371 0.1 10141625
18:00+17n126338 0.3 101585
21:00+12s327277 0.4 101735
16 may, sun
sun1600:00+11s347225 0.0 101656
03:00+11s457558 0.0 101577
06:00+12s35654 0.0 1014125
09:00+21se22354 0.0 10111287
12:00+24ese14283 0.0 10082430
15:00+24s13283 0.0 10072329
18:00+19s23430 0.0 100876
21:00+10s56470 0.0 1012101